Location: *
(50.9167°S, 179.4000°W)
Time: 19:57:13
(UTC+00:00)

Intercosmos 25 - Pass Details

Date: 03 March 2024
Orbit: 438 x 2848 km, 82.6° (Epoch: 16 April)

Event Time Altitude Azimuth Distance (km) Brightness Sun altitude
Exits shadow 15:31:27 - 8° (N) 2,393 6.3 -18.1°
Reaches altitude 10° 15:31:50 10° 8° (N) 2,229 6.1 -18.1°
Maximum altitude 15:36:18 49° 83° (E) 730 4.2 -17.5°
Drops below altitude 10° 15:39:39 10° 159° (SSE) 1,676 6.6 -17.1°
Sets 15:41:33 0° 164° (SSE) 2,500 7.5 -16.8°
